Overview Statistics Trail Chart Weather Telemetry Raw packets
 

This is the latest recevied weather packets stored in our database for station/object OK1TBM-13. If no packets are shown the sender has not sent any weather packets the latest 10 day(s).

<< 7 8 9 10 11 12 13 >>
Time Temp. Humidity Pressure Rain* Wind** Luminosity Snow
1788612900 20° C 56% 1017.3 hPa 0 mm - 134 W/m² -
1788612600 20.56° C 56% 1017.3 hPa 0 mm - 146 W/m² -
1788612300 20° C 56% 1017.3 hPa 0 mm - 120 W/m² -
1788612001 20° C 56% 1017.3 hPa 0 mm - 131 W/m² -
1788611702 20.56° C 54% 1017.3 hPa 0 mm - 165 W/m² -
1788611401 20.56° C 55% 1017.3 hPa 0 mm - 164 W/m² -
1788611101 20.56° C 55% 1017.3 hPa 0 mm - 128 W/m² -
1788610823 21.11° C 53% 1017.3 hPa 0 mm - 158 W/m² -
1788610501 21.67° C 53% 1017.3 hPa 0 mm - 754 W/m² -
1788610201 22.22° C 54% 1017.3 hPa 0 mm - 716 W/m² -
1788609901 21.67° C 53% 1017.3 hPa 0 mm - 596 W/m² -
1788609601 20.56° C 54% 1017.3 hPa 0 mm - 235 W/m² -
1788609002 21.67° C 53% 1017.3 hPa 0 mm - 800 W/m² -
1788608701 21.11° C 54% 1017.3 hPa 0 mm - 340 W/m² -
1788608408 21.11° C 55% 1017.3 hPa 0 mm - 722 W/m² -
1788608101 21.11° C 57% 1017.3 hPa 0 mm - 764 W/m² -
1788607801 20.56° C 59% 1017.3 hPa 0 mm - 199 W/m² -
1788607201 21.67° C 54% 1017.3 hPa 0 mm - 808 W/m² -
1788606902 21.11° C 55% 1017.3 hPa 0 mm - 772 W/m² -
1788606602 21.11° C 58% 1017.3 hPa 0 mm - 768 W/m² -
1788606301 20.56° C 59% 1017.3 hPa 0 mm - 756 W/m² -
1788606002 20.56° C 59% 1017.3 hPa 0 mm - 728 W/m² -
1788605701 20.56° C 64% 1017.3 hPa 0 mm - 137 W/m² -
1788605401 20° C 65% 1017.3 hPa 0 mm - 732 W/m² -
1788605101 18.89° C 70% 1017.3 hPa 0 mm - 119 W/m² -

* Rain latest hour (hover to see other rain measurements)
** Current wind speed in m/s (hover to see current wind gust speed)